BAW3131 EGPH-LPMA

Flight info

Callsign BAW3131
Flight time N/A
Altitude 32000
Route GOSAM P600 TRN DCT NIMAT DCT DUB DCT ABAGU DCT CRK/M080F320 DCT OMOKO T16 EKROL/M080F330 T16 NAVIX/N0462F330 DCT KICAS
Aircraft A321/M-SDE3FGHIRWY/LB1

Departure

Time 2026-04-21 10:17
Airport Edinburgh Airport (EGPH)

Arrival

Time N/A
Airport Cristiano Ronaldo International Airport (LPMA)
Time Latitude Longitude Altitude Speed Heading
2026-04-21 10:17 55.96210 -3.82617 6926 ft 292 kts 253°
2026-04-21 10:17 55.95700 -3.86134 7518 ft 293 kts 253°
2026-04-21 10:18 55.95184 -3.89665 8094 ft 295 kts 253°
2026-04-21 10:18 55.94663 -3.93226 8668 ft 298 kts 252°
2026-04-21 10:18 55.94125 -3.96809 9249 ft 299 kts 249°
2026-04-21 10:18 55.93315 -4.00169 9774 ft 299 kts 236°
2026-04-21 10:19 55.92125 -4.03179 10346 ft 296 kts 224°
2026-04-21 10:19 55.90627 -4.05673 10876 ft 293 kts 211°
2026-04-21 10:19 55.88915 -4.07775 11100 ft 307 kts 209°
2026-04-21 10:19 55.87099 -4.09971 11237 ft 323 kts 210°
2026-04-21 10:20 55.85188 -4.12296 11367 ft 339 kts 210°
2026-04-21 10:20 55.83199 -4.14721 11498 ft 354 kts 210°
2026-04-21 10:20 55.81156 -4.17213 11624 ft 367 kts 210°
2026-04-21 10:20 55.79009 -4.19836 11755 ft 380 kts 210°
2026-04-21 10:21 55.76794 -4.22555 11885 ft 392 kts 211°
2026-04-21 10:21 55.74532 -4.25363 12139 ft 400 kts 211°
2026-04-21 10:21 55.72248 -4.28213 12531 ft 403 kts 211°
2026-04-21 10:21 55.69950 -4.31083 12963 ft 405 kts 211°
2026-04-21 10:22 55.67635 -4.33976 13384 ft 408 kts 211°
2026-04-21 10:22 55.65305 -4.36875 13806 ft 410 kts 211°
2026-04-21 10:22 55.62958 -4.39781 14211 ft 412 kts 211°
2026-04-21 10:22 55.60598 -4.42690 14583 ft 415 kts 211°
2026-04-21 10:23 55.58218 -4.45605 14931 ft 417 kts 211°
2026-04-21 10:23 55.55829 -4.48530 15325 ft 418 kts 211°
2026-04-21 10:23 55.53435 -4.51465 15715 ft 420 kts 211°
2026-04-21 10:23 55.51029 -4.54421 16081 ft 422 kts 211°
2026-04-21 10:24 55.48640 -4.57351 16429 ft 424 kts 211°
2026-04-21 10:24 55.46203 -4.60334 16784 ft 426 kts 211°
2026-04-21 10:24 55.43749 -4.63325 17141 ft 428 kts 210°
2026-04-21 10:24 55.41292 -4.66312 17509 ft 430 kts 210°
2026-04-21 10:25 55.38825 -4.69310 17840 ft 432 kts 210°
2026-04-21 10:25 55.36346 -4.72317 18168 ft 434 kts 210°
2026-04-21 10:25 55.33852 -4.75341 18500 ft 436 kts 210°
2026-04-21 10:25 55.31296 -4.78220 18818 ft 435 kts 204°
2026-04-21 10:26 55.28596 -4.80422 19098 ft 433 kts 198°
2026-04-21 10:26 55.25809 -4.82462 19390 ft 434 kts 198°
2026-04-21 10:26 55.23010 -4.84510 19686 ft 436 kts 198°
2026-04-21 10:26 55.20201 -4.86562 19995 ft 438 kts 198°
2026-04-21 10:27 55.17387 -4.88616 20307 ft 439 kts 198°
2026-04-21 10:27 55.14557 -4.90680 20654 ft 440 kts 198°
2026-04-21 10:27 55.11723 -4.92748 20980 ft 441 kts 198°
2026-04-21 10:27 55.08879 -4.94821 21275 ft 443 kts 199°
2026-04-21 10:28 55.06018 -4.96898 21533 ft 445 kts 199°
2026-04-21 10:28 55.03179 -4.98959 21789 ft 447 kts 199°
2026-04-21 10:28 55.00295 -5.01055 22068 ft 449 kts 199°
2026-04-21 10:28 54.97410 -5.03149 22342 ft 451 kts 199°
2026-04-21 10:29 54.94501 -5.05257 22616 ft 452 kts 199°
2026-04-21 10:29 54.91577 -5.07372 22882 ft 454 kts 199°
2026-04-21 10:29 54.88652 -5.09479 23133 ft 456 kts 200°
2026-04-21 10:29 54.85743 -5.11567 23346 ft 458 kts 200°
2026-04-21 10:30 54.82785 -5.13684 23568 ft 459 kts 200°
2026-04-21 10:30 54.79826 -5.15804 23789 ft 460 kts 200°
2026-04-21 10:30 54.76853 -5.17935 24057 ft 460 kts 200°
2026-04-21 10:30 54.73900 -5.20050 24324 ft 459 kts 201°
2026-04-21 10:31 54.70970 -5.22142 24584 ft 458 kts 200°
2026-04-21 10:31 54.68021 -5.24240 24813 ft 458 kts 200°
2026-04-21 10:31 54.65073 -5.26335 25066 ft 457 kts 201°
2026-04-21 10:31 54.62131 -5.28425 25308 ft 456 kts 203°
2026-04-21 10:32 54.59190 -5.30510 25533 ft 456 kts 203°
2026-04-21 10:32 54.56291 -5.32559 25797 ft 454 kts 204°
2026-04-21 10:32 54.53367 -5.34627 26057 ft 453 kts 203°
2026-04-21 10:32 54.50444 -5.36695 26271 ft 453 kts 203°
2026-04-21 10:33 54.47526 -5.38756 26508 ft 453 kts 205°
2026-04-21 10:33 54.44605 -5.40815 26749 ft 453 kts 205°
2026-04-21 10:33 54.41681 -5.42875 26981 ft 452 kts 205°
2026-04-21 10:33 54.38768 -5.44922 27220 ft 452 kts 205°
2026-04-21 10:34 54.35896 -5.46932 27456 ft 451 kts 205°
2026-04-21 10:34 54.32999 -5.48957 27735 ft 449 kts 206°
2026-04-21 10:34 54.30095 -5.50982 28003 ft 448 kts 206°
2026-04-21 10:34 54.27204 -5.52992 28249 ft 448 kts 206°
2026-04-21 10:35 54.24316 -5.54999 28497 ft 447 kts 206°
2026-04-21 10:35 54.21434 -5.57001 28734 ft 446 kts 206°
2026-04-21 10:35 54.18555 -5.58998 28970 ft 446 kts 206°
2026-04-21 10:35 54.15709 -5.60968 29205 ft 445 kts 206°
2026-04-21 10:36 54.12829 -5.62962 29441 ft 445 kts 206°
2026-04-21 10:36 54.09961 -5.64945 29655 ft 443 kts 207°
2026-04-21 10:36 54.07109 -5.66914 30006 ft 440 kts 207°
2026-04-21 10:36 54.04269 -5.68869 30297 ft 438 kts 207°
2026-04-21 10:37 54.01467 -5.70796 30537 ft 437 kts 207°
2026-04-21 10:37 53.98640 -5.72744 30710 ft 436 kts 208°
2026-04-21 10:37 53.95939 -5.75046 30872 ft 431 kts 217°
2026-04-21 10:37 53.93485 -5.77912 31014 ft 428 kts 221°
2026-04-21 10:38 53.91081 -5.80891 31157 ft 428 kts 220°
2026-04-21 10:38 53.88668 -5.83862 31298 ft 429 kts 220°
2026-04-21 10:38 53.86244 -5.86824 31441 ft 429 kts 220°
2026-04-21 10:38 53.83815 -5.89779 31594 ft 429 kts 221°
2026-04-21 10:39 53.81401 -5.92716 31806 ft 427 kts 221°
2026-04-21 10:39 53.79020 -5.95612 31974 ft 426 kts 221°
2026-04-21 10:39 53.76603 -5.98547 32121 ft 426 kts 221°
2026-04-21 10:39 53.74187 -6.01481 32263 ft 426 kts 221°
2026-04-21 10:40 53.71771 -6.04410 32409 ft 427 kts 221°
2026-04-21 10:40 53.66937 -6.10267 32426 ft 433 kts 221°
2026-04-21 10:41 53.62008 -6.16218 32426 ft 438 kts 220°
2026-04-21 10:41 53.57874 -6.21195 32409 ft 439 kts 221°
2026-04-21 10:42 53.52927 -6.27135 32409 ft 436 kts 221°
2026-04-21 10:42 53.48024 -6.33113 32411 ft 434 kts 224°
2026-04-21 10:43 53.43370 -6.39508 32417 ft 432 kts 226°
2026-04-21 10:43 53.38791 -6.46063 32390 ft 432 kts 226°
2026-04-21 10:44 53.34173 -6.52530 32392 ft 433 kts 225°
2026-04-21 10:44 53.29523 -6.58882 32404 ft 433 kts 225°
2026-04-21 10:45 53.24833 -6.65251 32399 ft 433 kts 225°
2026-04-21 10:45 53.20152 -6.71611 32397 ft 433 kts 225°
2026-04-21 10:46 53.15515 -6.77928 32386 ft 433 kts 225°
2026-04-21 10:46 53.10833 -6.84281 32387 ft 433 kts 225°
2026-04-21 10:47 53.06151 -6.90610 32388 ft 433 kts 225°
2026-04-21 10:47 53.01488 -6.96892 32362 ft 433 kts 225°
2026-04-21 10:48 52.96797 -7.03200 32369 ft 433 kts 225°
2026-04-21 10:48 52.92102 -7.09491 32351 ft 434 kts 224°
2026-04-21 10:49 52.87397 -7.15761 32370 ft 434 kts 224°
2026-04-21 10:49 52.82718 -7.21989 32371 ft 433 kts 224°
2026-04-21 10:50 52.78016 -7.28235 32349 ft 433 kts 224°
2026-04-21 10:50 52.73300 -7.34485 32359 ft 433 kts 224°
2026-04-21 10:51 52.68611 -7.40683 32359 ft 433 kts 224°
2026-04-21 10:51 52.63902 -7.46895 32353 ft 433 kts 224°
2026-04-21 10:52 52.59173 -7.53106 32350 ft 433 kts 223°
2026-04-21 10:52 52.54478 -7.59256 32354 ft 433 kts 223°
2026-04-21 10:53 52.49754 -7.65417 32324 ft 433 kts 223°
2026-04-21 10:53 52.45014 -7.71577 32331 ft 434 kts 223°
2026-04-21 10:54 52.40280 -7.77725 32332 ft 434 kts 223°
2026-04-21 10:54 52.35561 -7.83838 32338 ft 434 kts 222°
2026-04-21 10:55 52.30809 -7.89971 32341 ft 435 kts 222°
2026-04-21 10:55 52.26053 -7.96104 32322 ft 435 kts 222°
2026-04-21 10:56 52.21318 -8.02192 32320 ft 435 kts 221°
2026-04-21 10:56 52.16561 -8.08271 32320 ft 435 kts 221°
2026-04-21 10:57 52.11812 -8.14320 32313 ft 435 kts 221°
2026-04-21 10:57 52.07040 -8.20398 32309 ft 435 kts 221°
2026-04-21 10:58 52.02275 -8.26460 32299 ft 435 kts 221°
2026-04-21 10:58 51.97502 -8.32508 32273 ft 435 kts 221°
2026-04-21 10:59 51.92740 -8.38506 32284 ft 435 kts 221°
2026-04-21 10:59 51.87976 -8.44495 32290 ft 435 kts 221°
2026-04-21 11:00 51.83180 -8.50516 32292 ft 435 kts 221°
2026-04-21 11:00 51.78409 -8.56556 32297 ft 435 kts 221°
2026-04-21 11:01 51.73659 -8.62562 32298 ft 435 kts 221°
2026-04-21 11:01 51.68884 -8.68582 32282 ft 435 kts 221°
2026-04-21 11:02 51.61742 -8.77535 32279 ft 435 kts 220°
2026-04-21 11:02 51.56952 -8.83514 32263 ft 435 kts 220°
2026-04-21 11:03 51.52202 -8.89431 32268 ft 435 kts 220°
2026-04-21 11:03 51.47415 -8.95386 32266 ft 435 kts 220°
2026-04-21 11:04 51.42623 -9.01326 32258 ft 435 kts 220°
2026-04-21 11:04 51.37823 -9.07249 32249 ft 435 kts 220°
2026-04-21 11:05 51.33059 -9.13118 32244 ft 435 kts 220°
2026-04-21 11:05 51.28258 -9.19015 32245 ft 435 kts 220°
2026-04-21 11:06 51.23455 -9.24910 32237 ft 435 kts 220°
2026-04-21 11:06 51.18673 -9.30765 32218 ft 434 kts 219°
2026-04-21 11:07 51.13867 -9.36632 32223 ft 434 kts 219°
2026-04-21 11:07 51.09087 -9.42438 32225 ft 434 kts 220°
2026-04-21 11:08 51.04280 -9.48266 32215 ft 434 kts 219°
2026-04-21 11:08 50.99477 -9.54075 32224 ft 433 kts 219°
2026-04-21 11:09 50.94708 -9.59815 32217 ft 431 kts 218°
2026-04-21 11:09 50.89920 -9.65581 32207 ft 431 kts 219°
2026-04-21 11:10 50.85168 -9.71292 32200 ft 431 kts 219°
2026-04-21 11:10 50.80390 -9.77005 32340 ft 429 kts 218°
2026-04-21 11:11 50.78015 -9.79843 32520 ft 427 kts 219°
2026-04-21 11:11 50.75651 -9.82671 32734 ft 425 kts 218°
2026-04-21 11:11 50.73292 -9.85484 32880 ft 425 kts 219°
2026-04-21 11:11 50.70934 -9.88285 33032 ft 423 kts 218°
2026-04-21 11:12 50.68576 -9.91082 33163 ft 423 kts 218°
2026-04-21 11:12 50.66218 -9.93884 33164 ft 425 kts 218°
2026-04-21 11:12 50.61524 -9.99457 33156 ft 425 kts 218°
2026-04-21 11:13 50.56784 -10.05065 33155 ft 424 kts 218°
2026-04-21 11:13 50.52026 -10.10661 33140 ft 426 kts 218°
2026-04-21 11:14 50.47312 -10.16187 33134 ft 426 kts 218°
2026-04-21 11:14 50.42565 -10.21766 33119 ft 426 kts 218°
2026-04-21 11:15 50.37811 -10.27335 33142 ft 426 kts 217°
2026-04-21 11:15 50.33038 -10.32899 33137 ft 426 kts 218°
2026-04-21 11:16 50.28301 -10.38403 33119 ft 426 kts 218°
2026-04-21 11:16 50.23537 -10.43927 33129 ft 426 kts 217°
2026-04-21 11:17 50.18771 -10.49439 33126 ft 425 kts 217°
2026-04-21 11:17 50.14014 -10.54937 33097 ft 425 kts 217°
2026-04-21 11:18 50.09282 -10.60391 33088 ft 426 kts 216°
2026-04-21 11:18 50.04505 -10.65879 33089 ft 426 kts 216°
2026-04-21 11:19 49.99717 -10.71367 33090 ft 426 kts 216°
2026-04-21 11:19 49.94955 -10.76809 33076 ft 428 kts 216°
2026-04-21 11:20 49.90152 -10.82290 33050 ft 428 kts 216°
2026-04-21 11:20 49.85368 -10.87737 33060 ft 424 kts 216°
2026-04-21 11:21 49.80582 -10.93153 33048 ft 423 kts 216°
2026-04-21 11:21 49.75836 -10.98513 33045 ft 426 kts 215°
2026-04-21 11:22 49.71050 -11.03921 33036 ft 426 kts 215°
2026-04-21 11:22 49.66286 -11.09287 33030 ft 424 kts 215°
2026-04-21 11:23 49.61514 -11.14649 33030 ft 422 kts 215°
2026-04-21 11:23 49.56746 -11.19999 33013 ft 424 kts 215°
2026-04-21 11:24 49.52007 -11.25289 33009 ft 423 kts 215°
2026-04-21 11:24 49.47227 -11.30607 33006 ft 423 kts 214°
2026-04-21 11:25 49.42440 -11.35935 33004 ft 423 kts 214°
2026-04-21 11:25 49.38477 -11.40346 32998 ft 424 kts 214°
2026-04-21 11:26 49.33717 -11.45624 32997 ft 423 kts 214°
2026-04-21 11:26 49.28901 -11.50931 32990 ft 425 kts 213°
2026-04-21 11:27 49.24102 -11.56208 32987 ft 426 kts 214°
2026-04-21 11:27 49.19293 -11.61508 32983 ft 426 kts 214°
2026-04-21 11:28 49.14470 -11.66794 32981 ft 426 kts 212°
2026-04-21 11:28 49.09670 -11.72036 32973 ft 426 kts 212°
2026-04-21 11:29 49.04840 -11.77292 32963 ft 426 kts 213°
2026-04-21 11:29 49.00014 -11.82544 32953 ft 425 kts 213°
2026-04-21 11:30 48.95202 -11.87776 32946 ft 425 kts 213°
2026-04-21 11:30 48.90406 -11.92966 32952 ft 426 kts 212°
2026-04-21 11:31 48.85557 -11.98197 32928 ft 426 kts 210°
2026-04-21 11:31 48.80288 -12.02036 32916 ft 422 kts 198°
2026-04-21 11:32 48.74765 -12.05135 32920 ft 422 kts 198°
2026-04-21 11:32 48.69235 -12.08230 32912 ft 423 kts 198°
2026-04-21 11:33 48.63716 -12.11312 32903 ft 423 kts 198°
2026-04-21 11:33 48.58217 -12.14382 32901 ft 423 kts 198°
2026-04-21 11:34 48.52689 -12.17448 32898 ft 423 kts 198°
2026-04-21 11:34 48.47160 -12.20516 32893 ft 423 kts 197°
2026-04-21 11:35 48.41625 -12.23574 32880 ft 423 kts 198°
2026-04-21 11:35 48.36120 -12.26607 32883 ft 423 kts 198°
2026-04-21 11:36 48.30586 -12.29669 32875 ft 423 kts 198°
2026-04-21 11:36 48.25053 -12.32720 32874 ft 423 kts 198°
2026-04-21 11:37 48.19552 -12.35739 32866 ft 423 kts 197°
2026-04-21 11:37 48.14019 -12.38759 32841 ft 423 kts 198°
2026-04-21 11:38 48.08487 -12.41776 32844 ft 422 kts 198°
2026-04-21 11:38 48.02968 -12.44781 32836 ft 423 kts 197°
2026-04-21 11:39 47.97457 -12.47774 32818 ft 423 kts 197°
2026-04-21 11:39 47.91908 -12.50777 32814 ft 423 kts 197°
2026-04-21 11:40 47.86380 -12.53773 32819 ft 423 kts 197°
2026-04-21 11:40 47.80878 -12.56740 32810 ft 423 kts 197°
2026-04-21 11:41 47.75339 -12.59725 32798 ft 423 kts 197°
2026-04-21 11:41 47.69810 -12.62704 32797 ft 422 kts 197°
2026-04-21 11:42 47.64315 -12.65643 32800 ft 422 kts 197°
2026-04-21 11:42 47.58780 -12.68596 32780 ft 422 kts 197°
2026-04-21 11:43 47.53247 -12.71547 32776 ft 423 kts 197°
2026-04-21 11:43 47.47690 -12.74512 32762 ft 423 kts 197°
2026-04-21 11:44 47.42166 -12.77440 32754 ft 424 kts 197°
2026-04-21 11:44 47.36601 -12.80385 32758 ft 424 kts 196°
2026-04-21 11:45 47.31067 -12.83311 32754 ft 424 kts 197°
2026-04-21 11:45 47.25497 -12.86266 32749 ft 424 kts 196°
2026-04-21 11:46 47.19960 -12.89172 32738 ft 424 kts 196°
2026-04-21 11:46 47.14386 -12.92098 32730 ft 425 kts 196°
2026-04-21 11:47 47.08812 -12.95022 32720 ft 425 kts 196°
2026-04-21 11:47 47.03278 -12.97922 32721 ft 424 kts 196°
2026-04-21 11:48 46.97703 -13.00843 32720 ft 424 kts 196°
2026-04-21 11:48 46.92135 -13.03735 32692 ft 423 kts 195°
2026-04-21 11:49 46.86605 -13.06596 32685 ft 424 kts 195°
2026-04-21 11:49 46.81042 -13.09475 32690 ft 423 kts 195°
2026-04-21 11:50 46.75493 -13.12355 32672 ft 423 kts 195°
2026-04-21 11:50 46.69982 -13.15196 32636 ft 422 kts 195°
2026-04-21 11:51 46.64423 -13.18047 32633 ft 423 kts 195°
2026-04-21 11:51 46.58860 -13.20912 32622 ft 424 kts 195°
2026-04-21 11:52 46.53300 -13.23764 32623 ft 424 kts 195°
2026-04-21 11:52 46.47758 -13.26593 32625 ft 424 kts 195°
2026-04-21 11:53 46.42183 -13.29434 32606 ft 424 kts 195°
2026-04-21 11:53 46.36606 -13.32279 32616 ft 424 kts 195°
2026-04-21 11:54 46.31085 -13.35088 32586 ft 422 kts 195°
2026-04-21 11:54 46.25539 -13.37897 32574 ft 421 kts 195°
2026-04-21 11:55 46.20021 -13.40690 32575 ft 422 kts 195°
2026-04-21 11:55 46.14468 -13.43498 32576 ft 422 kts 194°
2026-04-21 11:56 46.08901 -13.46302 32569 ft 422 kts 194°
2026-04-21 11:56 46.03354 -13.49100 32568 ft 422 kts 194°
2026-04-21 11:57 45.97813 -13.51884 32565 ft 422 kts 194°
2026-04-21 11:57 45.92293 -13.54636 32595 ft 422 kts 194°
2026-04-21 11:58 45.86766 -13.57393 32532 ft 419 kts 194°
2026-04-21 11:58 45.81241 -13.60146 32532 ft 420 kts 194°
2026-04-21 11:59 45.75734 -13.62896 32528 ft 421 kts 194°
2026-04-21 11:59 45.70203 -13.65640 32547 ft 420 kts 194°
2026-04-21 12:00 45.64716 -13.68356 32553 ft 418 kts 194°
2026-04-21 12:00 45.59205 -13.71088 32538 ft 418 kts 194°
2026-04-21 12:01 45.53706 -13.73806 32538 ft 417 kts 194°
2026-04-21 12:01 45.48255 -13.76488 32500 ft 412 kts 193°
2026-04-21 12:02 45.40131 -13.80465 32485 ft 412 kts 193°
2026-04-21 12:03 45.34684 -13.83140 32506 ft 413 kts 193°
2026-04-21 12:03 45.29265 -13.85797 32506 ft 414 kts 193°
2026-04-21 12:04 45.23808 -13.88466 32496 ft 413 kts 192°
2026-04-21 12:04 45.18400 -13.91093 32498 ft 413 kts 192°
2026-04-21 12:05 45.12957 -13.93730 32494 ft 413 kts 192°
2026-04-21 12:05 45.07529 -13.96366 32460 ft 411 kts 192°
2026-04-21 12:06 45.02119 -13.98991 32460 ft 411 kts 192°
2026-04-21 12:06 44.96730 -14.01690 32464 ft 414 kts 194°
2026-04-21 12:07 44.91354 -14.04701 32461 ft 416 kts 195°
2026-04-21 12:07 44.86008 -14.07756 32476 ft 416 kts 194°
2026-04-21 12:08 44.80626 -14.10775 32462 ft 416 kts 194°
2026-04-21 12:08 44.75240 -14.13756 32458 ft 415 kts 194°
2026-04-21 12:09 44.69839 -14.16726 32434 ft 415 kts 194°
2026-04-21 12:09 44.64474 -14.19674 32433 ft 416 kts 194°
2026-04-21 12:10 44.59077 -14.22636 32435 ft 417 kts 194°
2026-04-21 12:10 44.54579 -14.25097 32439 ft 417 kts 194°
2026-04-21 12:11 44.48277 -14.28540 32444 ft 418 kts 194°
2026-04-21 12:11 44.43768 -14.30995 32445 ft 418 kts 194°
2026-04-21 12:12 44.38348 -14.33950 32451 ft 418 kts 194°
2026-04-21 12:12 44.32912 -14.36916 32417 ft 419 kts 194°
2026-04-21 12:13 44.27462 -14.39878 32424 ft 420 kts 195°
2026-04-21 12:13 44.22030 -14.42817 32421 ft 421 kts 194°
2026-04-21 12:14 44.16548 -14.45774 32428 ft 422 kts 194°
2026-04-21 12:14 44.11063 -14.48730 32443 ft 422 kts 194°
2026-04-21 12:15 44.05613 -14.51665 32463 ft 423 kts 195°
2026-04-21 12:15 44.00104 -14.54631 32454 ft 423 kts 195°
2026-04-21 12:16 43.94619 -14.57579 32511 ft 424 kts 195°
2026-04-21 12:16 43.89102 -14.60527 32435 ft 426 kts 195°
2026-04-21 12:17 43.83541 -14.63488 32435 ft 428 kts 195°
2026-04-21 12:17 43.78003 -14.66435 32445 ft 429 kts 195°
2026-04-21 12:18 43.72403 -14.69420 32465 ft 430 kts 195°
2026-04-21 12:18 43.66821 -14.72398 32467 ft 430 kts 195°
2026-04-21 12:19 43.61256 -14.75352 32500 ft 430 kts 196°
2026-04-21 12:19 43.55640 -14.78321 32498 ft 431 kts 196°
2026-04-21 12:20 43.50067 -14.81267 32495 ft 431 kts 196°
2026-04-21 12:20 43.44447 -14.84220 32515 ft 431 kts 196°
2026-04-21 12:21 43.38830 -14.87166 32523 ft 431 kts 196°
2026-04-21 12:21 43.33259 -14.90085 32516 ft 431 kts 196°
2026-04-21 12:22 43.27649 -14.93018 32528 ft 431 kts 196°
2026-04-21 12:22 43.22021 -14.95957 32521 ft 431 kts 197°
2026-04-21 12:23 43.16396 -14.98894 32511 ft 433 kts 197°
2026-04-21 12:23 43.10794 -15.01809 32522 ft 434 kts 197°
2026-04-21 12:24 43.05143 -15.04749 32538 ft 434 kts 197°
2026-04-21 12:24 42.99482 -15.07682 32549 ft 435 kts 198°
2026-04-21 12:25 42.93837 -15.10603 32558 ft 436 kts 198°
2026-04-21 12:25 42.88154 -15.13544 32569 ft 436 kts 198°
2026-04-21 12:26 42.82446 -15.16478 32571 ft 437 kts 198°
2026-04-21 12:26 42.76785 -15.19394 32584 ft 436 kts 198°
2026-04-21 12:27 42.71097 -15.22313 32594 ft 436 kts 198°
2026-04-21 12:27 42.65405 -15.25239 32593 ft 436 kts 198°
2026-04-21 12:28 42.59752 -15.28125 32605 ft 436 kts 199°
2026-04-21 12:28 42.54069 -15.31029 32612 ft 436 kts 199°
2026-04-21 12:29 42.48383 -15.33921 32612 ft 436 kts 199°
2026-04-21 12:29 42.42742 -15.36784 32620 ft 435 kts 199°
2026-04-21 12:30 42.37059 -15.39673 32615 ft 435 kts 200°
2026-04-21 12:30 42.31383 -15.42555 32620 ft 435 kts 200°
2026-04-21 12:31 42.25744 -15.45397 32632 ft 435 kts 200°
2026-04-21 12:31 42.20074 -15.48262 32640 ft 434 kts 200°
2026-04-21 12:32 42.14394 -15.51115 32627 ft 434 kts 200°
2026-04-21 12:32 42.08722 -15.53967 32637 ft 434 kts 200°
2026-04-21 12:33 42.03088 -15.56796 32642 ft 434 kts 200°
2026-04-21 12:33 41.97217 -15.58677 32642 ft 436 kts 186°
2026-04-21 12:34 41.91164 -15.59325 32638 ft 436 kts 186°
2026-04-21 12:34 41.85141 -15.59973 32650 ft 436 kts 186°
2026-04-21 12:35 41.79078 -15.60643 32653 ft 436 kts 187°
2026-04-21 12:35 41.73024 -15.61316 32659 ft 436 kts 186°
2026-04-21 12:36 41.67007 -15.61969 32668 ft 436 kts 186°
2026-04-21 12:36 41.60941 -15.62627 32674 ft 436 kts 186°
2026-04-21 12:37 41.54909 -15.63282 32678 ft 437 kts 186°
2026-04-21 12:37 41.48834 -15.63949 32667 ft 437 kts 187°
2026-04-21 12:38 41.42739 -15.64607 32685 ft 439 kts 188°
2026-04-21 12:38 41.36659 -15.65260 32680 ft 441 kts 188°
2026-04-21 12:39 41.30524 -15.65926 32664 ft 442 kts 188°
2026-04-21 12:39 41.24411 -15.66590 32674 ft 443 kts 188°
2026-04-21 12:40 41.18237 -15.67256 32691 ft 444 kts 188°
2026-04-21 12:40 41.12079 -15.67914 32698 ft 444 kts 188°
2026-04-21 12:41 41.05937 -15.68571 32679 ft 445 kts 189°
2026-04-21 12:41 40.99757 -15.69234 32697 ft 445 kts 189°
2026-04-21 12:42 40.93564 -15.69895 32718 ft 446 kts 189°
2026-04-21 12:42 40.87373 -15.70558 32696 ft 446 kts 190°
2026-04-21 12:43 40.81176 -15.71215 32712 ft 447 kts 190°
2026-04-21 12:43 40.74965 -15.71871 32724 ft 447 kts 190°
2026-04-21 12:44 40.68786 -15.72528 32687 ft 447 kts 191°
2026-04-21 12:44 40.62563 -15.73190 32695 ft 448 kts 191°
2026-04-21 12:45 40.56327 -15.73852 32714 ft 449 kts 191°
2026-04-21 12:45 40.50130 -15.74508 32730 ft 449 kts 191°
2026-04-21 12:46 40.43874 -15.75162 32697 ft 450 kts 192°
2026-04-21 12:46 40.37609 -15.75817 32715 ft 451 kts 192°
2026-04-21 12:47 40.31334 -15.76476 32740 ft 452 kts 192°
2026-04-21 12:47 40.25094 -15.77129 32698 ft 452 kts 193°
2026-04-21 12:48 40.18785 -15.77793 32738 ft 455 kts 193°
2026-04-21 12:48 40.15627 -15.78126 32873 ft 454 kts 193°
2026-04-21 12:48 40.12473 -15.78454 33016 ft 454 kts 193°
2026-04-21 12:48 40.09354 -15.78773 33151 ft 453 kts 193°
2026-04-21 12:49 40.06203 -15.79097 33280 ft 453 kts 193°
2026-04-21 12:49 39.99955 -15.79740 33493 ft 452 kts 194°
2026-04-21 12:49 39.96811 -15.80069 33662 ft 451 kts 194°
2026-04-21 12:50 39.93676 -15.80397 33757 ft 452 kts 194°
2026-04-21 12:50 39.87421 -15.81051 33764 ft 453 kts 194°
2026-04-21 12:51 39.81121 -15.81702 33705 ft 454 kts 196°
2026-04-21 12:51 39.74780 -15.82364 33769 ft 458 kts 195°
2026-04-21 12:52 39.68431 -15.83023 33768 ft 459 kts 195°
2026-04-21 12:52 39.62074 -15.83675 33779 ft 460 kts 195°
2026-04-21 12:53 39.55670 -15.84324 33787 ft 461 kts 195°
2026-04-21 12:53 39.49310 -15.84962 33791 ft 461 kts 195°
2026-04-21 12:54 39.42911 -15.85617 33799 ft 461 kts 195°
2026-04-21 12:54 39.37587 -15.86167 33764 ft 461 kts 196°
2026-04-21 12:55 39.31167 -15.86826 33767 ft 462 kts 197°
2026-04-21 12:55 39.24729 -15.87482 33778 ft 464 kts 196°
2026-04-21 12:56 39.18320 -15.88126 33794 ft 465 kts 196°
2026-04-21 12:56 39.11851 -15.88776 33780 ft 466 kts 196°
2026-04-21 12:57 39.05362 -15.89439 33794 ft 468 kts 196°
2026-04-21 12:57 38.98853 -15.90094 33810 ft 469 kts 196°
2026-04-21 12:58 38.92389 -15.90740 33775 ft 469 kts 196°
2026-04-21 12:58 38.85862 -15.91401 33800 ft 469 kts 196°
2026-04-21 12:59 38.79346 -15.92050 33812 ft 470 kts 196°
2026-04-21 12:59 38.72857 -15.92701 33825 ft 470 kts 196°
2026-04-21 13:00 38.66325 -15.93362 33790 ft 469 kts 195°
2026-04-21 13:00 38.59837 -15.94011 33817 ft 470 kts 195°
2026-04-21 13:01 38.53302 -15.94661 33828 ft 470 kts 195°
2026-04-21 13:01 38.46767 -15.95309 33790 ft 470 kts 195°
2026-04-21 13:02 38.40268 -15.95960 33807 ft 470 kts 195°
2026-04-21 13:02 38.30486 -15.96921 33831 ft 471 kts 195°
2026-04-21 13:03 38.23937 -15.97566 33811 ft 471 kts 194°
2026-04-21 13:03 38.17384 -15.98217 33821 ft 472 kts 194°
2026-04-21 13:04 38.10824 -15.98859 33838 ft 472 kts 194°
2026-04-21 13:04 38.04298 -15.99491 33849 ft 473 kts 194°
2026-04-21 13:05 37.97738 -16.00138 33822 ft 472 kts 194°
2026-04-21 13:05 37.91156 -16.00795 33848 ft 473 kts 194°
2026-04-21 13:06 37.84626 -16.01443 33859 ft 473 kts 194°
2026-04-21 13:06 37.78050 -16.02077 33827 ft 473 kts 194°
2026-04-21 13:07 37.71494 -16.02703 33848 ft 474 kts 194°
2026-04-21 13:07 37.64905 -16.03348 33869 ft 474 kts 194°
2026-04-21 13:08 37.58363 -16.03992 33875 ft 474 kts 194°
2026-04-21 13:08 37.51769 -16.04636 33855 ft 474 kts 193°
2026-04-21 13:09 37.45180 -16.05257 33869 ft 475 kts 193°
2026-04-21 13:09 37.38610 -16.05885 33879 ft 475 kts 193°
2026-04-21 13:10 37.32018 -16.06526 33882 ft 475 kts 194°
2026-04-21 13:10 37.25411 -16.07169 33898 ft 475 kts 193°
2026-04-21 13:11 37.18844 -16.07800 33897 ft 475 kts 193°
2026-04-21 13:11 37.12250 -16.08426 33900 ft 475 kts 193°
2026-04-21 13:12 37.05656 -16.09051 33857 ft 475 kts 193°
2026-04-21 13:12 36.99053 -16.09691 33875 ft 475 kts 193°
2026-04-21 13:13 36.92494 -16.10321 33890 ft 475 kts 193°
2026-04-21 13:13 36.85882 -16.10956 33902 ft 476 kts 193°
2026-04-21 13:14 36.79299 -16.11579 33882 ft 476 kts 193°
2026-04-21 13:14 36.72642 -16.12202 33898 ft 477 kts 193°
2026-04-21 13:15 36.66068 -16.12821 33899 ft 477 kts 193°
2026-04-21 13:15 36.59450 -16.13449 33866 ft 477 kts 193°
2026-04-21 13:16 36.52809 -16.14079 33879 ft 478 kts 193°
2026-04-21 13:16 36.46205 -16.14701 33896 ft 478 kts 192°
2026-04-21 13:17 36.39555 -16.15323 33909 ft 479 kts 192°
2026-04-21 13:17 36.32908 -16.15950 33881 ft 479 kts 192°
2026-04-21 13:18 36.26246 -16.16575 33902 ft 480 kts 192°
2026-04-21 13:18 36.19615 -16.17189 33911 ft 480 kts 192°
2026-04-21 13:19 36.12948 -16.17807 33917 ft 480 kts 192°
2026-04-21 13:19 36.06272 -16.18440 33897 ft 480 kts 192°
2026-04-21 13:20 35.99628 -16.19067 33912 ft 481 kts 192°
2026-04-21 13:20 35.92939 -16.19679 33920 ft 481 kts 192°
2026-04-21 13:21 35.86261 -16.20293 33895 ft 481 kts 192°
2026-04-21 13:21 35.79567 -16.20917 33912 ft 482 kts 192°
2026-04-21 13:22 35.72905 -16.21536 33924 ft 482 kts 192°
2026-04-21 13:22 35.66202 -16.22157 33933 ft 482 kts 192°
2026-04-21 13:23 35.59493 -16.22784 33915 ft 483 kts 192°
2026-04-21 13:23 35.52783 -16.23396 33918 ft 483 kts 192°
2026-04-21 13:24 35.46128 -16.24147 33932 ft 481 kts 194°
2026-04-21 13:24 35.39459 -16.25130 33935 ft 481 kts 194°
2026-04-21 13:25 35.32803 -16.26128 33911 ft 482 kts 194°
2026-04-21 13:25 35.26163 -16.27042 33922 ft 483 kts 193°
2026-04-21 13:26 35.19479 -16.27933 33936 ft 483 kts 193°
2026-04-21 13:26 35.12786 -16.28838 33920 ft 483 kts 193°
2026-04-21 13:27 35.06093 -16.29758 33925 ft 484 kts 193°
2026-04-21 13:27 34.99429 -16.30675 33934 ft 484 kts 193°
2026-04-21 13:28 34.92716 -16.31588 33943 ft 485 kts 193°
2026-04-21 13:28 34.86038 -16.32495 33950 ft 485 kts 193°
2026-04-21 13:29 34.79326 -16.33403 33950 ft 485 kts 193°
2026-04-21 13:29 34.72606 -16.34313 33951 ft 485 kts 193°
2026-04-21 13:30 34.65925 -16.35206 33948 ft 484 kts 193°
2026-04-21 13:30 34.59207 -16.36104 33935 ft 485 kts 193°
2026-04-21 13:31 34.52544 -16.37010 33948 ft 485 kts 193°
2026-04-21 13:31 34.45827 -16.37924 33954 ft 485 kts 193°
2026-04-21 13:32 34.39097 -16.38830 33956 ft 486 kts 193°
2026-04-21 13:32 34.32360 -16.39707 33939 ft 486 kts 193°
2026-04-21 13:33 34.25668 -16.40591 33945 ft 487 kts 193°